TimeEDT,TemperatureF,Dew PointF,Humidity,Sea Level PressureIn,VisibilityMPH,Wind Direction,Wind SpeedMPH,Gust SpeedMPH,PrecipitationIn,Events,Conditions,WindDirDegrees,DateUTC
12:55 AM,81.0,64.9,58,29.94,10.0,SSW,17.3,25.3,N/A,,Clear,210,2013-09-11 04:55:00
1:55 AM,79.0,64.9,62,29.94,10.0,SSW,15.0,25.3,N/A,,Clear,210,2013-09-11 05:55:00
2:55 AM,80.1,64.9,60,29.94,10.0,SW,18.4,24.2,N/A,,Overcast,220,2013-09-11 06:55:00
3:55 AM,75.0,66.9,76,29.96,10.0,SW,8.1,-,N/A,,Partly Cloudy,230,2013-09-11 07:55:00
4:55 AM,73.0,66.9,81,29.96,10.0,SSW,8.1,-,N/A,,Partly Cloudy,200,2013-09-11 08:55:00
5:55 AM,72.0,66.9,84,29.97,8.0,WNW,3.5,-,N/A,,Partly Cloudy,300,2013-09-11 09:55:00
6:55 AM,70.0,66.9,90,29.99,6.0,NNW,4.6,-,N/A,,Mostly Cloudy,340,2013-09-11 10:55:00
7:55 AM,72.0,66.0,81,30.01,10.0,Calm,Calm,-,N/A,,Mostly Cloudy,0,2013-09-11 11:55:00
8:55 AM,75.0,66.0,73,30.02,10.0,Calm,Calm,-,N/A,,Mostly Cloudy,0,2013-09-11 12:55:00
9:55 AM,75.0,66.9,76,30.06,8.0,NW,5.8,-,0.00,Rain,Light Rain,310,2013-09-11 13:55:00
10:55 AM,77.0,64.0,64,30.02,10.0,West,4.6,-,0.00,,Mostly Cloudy,280,2013-09-11 14:55:00
11:55 AM,78.1,63.0,60,30.01,10.0,WSW,3.5,-,N/A,,Overcast,250,2013-09-11 15:55:00
12:55 PM,80.1,62.1,54,30.00,10.0,SW,6.9,-,N/A,,Mostly Cloudy,220,2013-09-11 16:55:00
1:55 PM,82.0,62.1,51,30.01,10.0,WSW,10.4,-,N/A,,Mostly Cloudy,240,2013-09-11 17:55:00
2:55 PM,78.1,64.0,62,30.01,10.0,WSW,6.9,-,N/A,,Mostly Cloudy,250,2013-09-11 18:55:00
3:55 PM,75.9,64.0,67,30.02,10.0,WSW,10.4,-,N/A,,Mostly Cloudy,240,2013-09-11 19:55:00
4:55 PM,73.0,66.9,81,30.01,10.0,WSW,9.2,-,0.02,Rain,Light Rain,240,2013-09-11 20:55:00
5:55 PM,73.9,66.9,79,29.99,10.0,SW,5.8,-,0.00,Rain,Light Rain,230,2013-09-11 21:55:00
6:55 PM,75.0,66.0,73,29.97,10.0,West,8.1,-,0.00,,Mostly Cloudy,260,2013-09-11 22:55:00
7:55 PM,72.0,66.0,81,29.97,10.0,SW,5.8,-,N/A,,Mostly Cloudy,230,2013-09-11 23:55:00
8:55 PM,69.1,66.0,90,29.97,10.0,SW,4.6,-,N/A,,Mostly Cloudy,220,2013-09-12 00:55:00
9:55 PM,68.0,64.9,90,29.97,10.0,Calm,Calm,-,N/A,,Scattered Clouds,0,2013-09-12 01:55:00
10:55 PM,68.0,64.9,90,29.96,10.0,South,4.6,-,N/A,,Scattered Clouds,190,2013-09-12 02:55:00
11:55 PM,69.1,64.0,84,29.96,10.0,SSW,3.5,-,N/A,,Clear,210,2013-09-12 03:55:00